Time,TemperatureF,DewpointF,PressureIn,WindDirection,WindDirectionDegrees,WindSpeedMPH,WindSpeedGustMPH,Humidity,HourlyPrecipIn,Conditions,Clouds,dailyrainin,SolarRadiationWatts/m^2,SoftwareType,DateUTC
2013-09-28 00:02:00,57.4,58.8,30.09,ESE,121,0.0,0.0,59,0.00,,,0.01,0.0,meteohub,2013-09-28 04:02:00,
2013-09-28 00:07:00,57.4,58.5,30.09,ESE,121,0.0,0.0,58,0.00,,,0.00,0.0,meteohub,2013-09-28 04:07:00,
2013-09-28 00:12:00,57.6,58.5,30.09,ESE,121,0.0,1.0,58,0.00,,,0.00,0.0,meteohub,2013-09-28 04:12:00,
2013-09-28 00:17:00,57.7,58.3,30.09,ESE,121,0.0,1.0,58,0.00,,,0.00,0.0,meteohub,2013-09-28 04:17:00,
2013-09-28 00:22:00,58.1,58.6,30.09,ESE,121,0.0,1.0,59,0.00,,,0.00,0.0,meteohub,2013-09-28 04:22:00,
2013-09-28 00:27:00,57.9,58.6,30.09,ESE,121,0.0,1.0,59,0.00,,,0.00,0.0,meteohub,2013-09-28 04:27:00,
2013-09-28 00:32:00,57.9,58.8,30.09,ENE,68,0.0,3.0,59,0.00,,,0.00,0.0,meteohub,2013-09-28 04:32:00,
2013-09-28 00:37:00,58.3,58.8,30.09,ENE,68,0.0,3.0,59,0.00,,,0.00,0.0,meteohub,2013-09-28 04:37:00,
2013-09-28 00:42:00,58.5,58.5,30.09,ENE,68,0.0,3.0,58,0.00,,,0.00,0.0,meteohub,2013-09-28 04:42:00,
2013-09-28 00:47:00,58.3,57.9,30.09,ENE,69,1.0,2.0,57,0.00,,,0.00,0.0,meteohub,2013-09-28 04:47:00,
2013-09-28 00:52:00,58.5,58.3,30.09,ENE,73,0.0,3.0,58,0.00,,,0.00,0.0,meteohub,2013-09-28 04:52:00,
2013-09-28 00:57:00,58.6,58.3,30.09,East,81,1.0,3.0,58,0.00,,,0.00,0.0,meteohub,2013-09-28 04:57:00,
2013-09-28 01:02:00,58.6,58.6,30.09,East,82,3.0,4.0,59,0.00,,,0.00,0.0,meteohub,2013-09-28 05:02:00,
2013-09-28 01:07:00,58.6,58.6,30.09,SE,126,2.0,4.0,59,0.00,,,0.00,0.0,meteohub,2013-09-28 05:07:00,
2013-09-28 01:12:00,58.6,58.6,30.08,SE,126,0.0,3.0,59,0.00,,,0.00,0.0,meteohub,2013-09-28 05:12:00,
2013-09-28 01:17:00,58.6,58.6,30.08,SE,126,0.0,3.0,59,0.00,,,0.00,0.0,meteohub,2013-09-28 05:17:00,
2013-09-28 01:22:00,58.5,58.8,30.08,ESE,107,2.0,3.0,59,0.00,,,0.00,0.0,meteohub,2013-09-28 05:22:00,
2013-09-28 01:27:00,58.5,58.5,30.08,ENE,70,1.0,3.0,58,0.00,,,0.00,0.0,meteohub,2013-09-28 05:27:00,
2013-09-28 01:32:00,58.3,57.7,30.08,ENE,70,0.0,3.0,57,0.00,,,0.00,0.0,meteohub,2013-09-28 05:32:00,
2013-09-28 01:37:00,58.1,58.3,30.08,ENE,70,0.0,3.0,58,0.00,,,0.00,0.0,meteohub,2013-09-28 05:37:00,
2013-09-28 01:42:00,57.7,58.3,30.08,ENE,70,0.0,3.0,58,0.00,,,0.00,0.0,meteohub,2013-09-28 05:42:00,
2013-09-28 01:47:00,57.4,58.6,30.08,ENE,70,0.0,1.0,59,0.00,,,0.00,0.0,meteohub,2013-09-28 05:47:00,
2013-09-28 01:52:00,57.2,58.6,30.08,ENE,70,0.0,0.0,59,0.00,,,0.00,0.0,meteohub,2013-09-28 05:52:00,
2013-09-28 01:57:00,57.0,58.6,30.08,ENE,70,0.0,1.0,59,0.00,,,0.00,0.0,meteohub,2013-09-28 05:57:00,
2013-09-28 02:02:00,57.0,58.3,30.08,ENE,61,0.0,1.0,58,0.00,,,0.00,0.0,meteohub,2013-09-28 06:02:00,
2013-09-28 02:07:00,56.8,58.3,30.08,ENE,65,0.0,3.0,58,0.00,,,0.00,0.0,meteohub,2013-09-28 06:07:00,
2013-09-28 02:12:00,56.5,57.7,30.08,ENE,65,0.0,3.0,57,0.00,,,0.00,0.0,meteohub,2013-09-28 06:12:00,
2013-09-28 02:17:00,56.3,58.3,30.08,East,86,0.0,1.0,58,0.00,,,0.00,0.0,meteohub,2013-09-28 06:17:00,
2013-09-28 02:22:00,56.3,58.1,30.08,East,96,0.0,1.0,58,0.00,,,0.00,0.0,meteohub,2013-09-28 06:22:00,
2013-09-28 02:27:00,56.1,58.1,30.08,East,96,0.0,1.0,58,0.00,,,0.00,0.0,meteohub,2013-09-28 06:27:00,
2013-09-28 02:32:00,56.1,58.1,30.08,East,96,0.0,2.0,58,0.00,,,0.00,0.0,meteohub,2013-09-28 06:32:00,
2013-09-28 02:37:00,56.1,58.3,30.08,ESE,115,0.0,2.0,58,0.00,,,0.00,0.0,meteohub,2013-09-28 06:37:00,
2013-09-28 02:42:00,56.1,58.3,30.08,ENE,78,0.0,2.0,58,0.00,,,0.00,0.0,meteohub,2013-09-28 06:42:00,
2013-09-28 02:47:00,55.9,58.3,30.08,ESE,115,0.0,4.0,58,0.00,,,0.00,0.0,meteohub,2013-09-28 06:47:00,
2013-09-28 02:52:00,55.9,58.3,30.08,ESE,120,0.0,4.0,58,0.00,,,0.00,0.0,meteohub,2013-09-28 06:52:00,
2013-09-28 02:57:00,55.8,58.3,30.07,ESE,114,0.0,2.0,58,0.00,,,0.00,0.0,meteohub,2013-09-28 06:57:00,
2013-09-28 03:02:00,55.8,57.7,30.07,East,92,0.0,2.0,57,0.00,,,0.00,0.0,meteohub,2013-09-28 07:02:00,
2013-09-28 03:07:00,55.8,58.1,30.07,East,92,0.0,2.0,58,0.00,,,0.00,0.0,meteohub,2013-09-28 07:07:00,
2013-09-28 03:12:00,55.6,58.1,30.07,East,92,1.0,3.0,58,0.00,,,0.00,0.0,meteohub,2013-09-28 07:12:00,
2013-09-28 03:17:00,55.6,58.1,30.08,ENE,74,0.0,3.0,58,0.00,,,0.00,0.0,meteohub,2013-09-28 07:17:00,
2013-09-28 03:22:00,55.2,58.1,30.08,ENE,68,2.0,3.0,58,0.00,,,0.00,0.0,meteohub,2013-09-28 07:22:00,
2013-09-28 03:27:00,55.2,58.1,30.08,ENE,76,0.0,3.0,58,0.00,,,0.00,0.0,meteohub,2013-09-28 07:27:00,
2013-09-28 03:32:00,55.0,58.3,30.07,ENE,76,0.0,3.0,58,0.00,,,0.00,0.0,meteohub,2013-09-28 07:32:00,
2013-09-28 03:37:00,54.9,58.3,30.07,ENE,76,0.0,3.0,58,0.00,,,0.00,0.0,meteohub,2013-09-28 07:37:00,
2013-09-28 03:42:00,54.1,58.3,30.07,ENE,76,0.0,2.0,58,0.00,,,0.00,0.0,meteohub,2013-09-28 07:42:00,
2013-09-28 03:47:00,53.8,57.7,30.07,ENE,76,0.0,1.0,57,0.00,,,0.00,0.0,meteohub,2013-09-28 07:47:00,
2013-09-28 03:52:00,53.4,57.6,30.08,ENE,76,0.0,1.0,57,0.00,,,0.00,0.0,meteohub,2013-09-28 07:52:00,
2013-09-28 03:57:00,53.2,58.1,30.08,ENE,76,0.0,2.0,58,0.00,,,0.00,0.0,meteohub,2013-09-28 07:57:00,
2013-09-28 04:02:00,52.9,58.1,30.08,ENE,76,0.0,2.0,58,0.00,,,0.00,0.0,meteohub,2013-09-28 08:02:00,
2013-09-28 04:07:00,52.7,58.1,30.08,ENE,76,0.0,2.0,58,0.00,,,0.00,0.0,meteohub,2013-09-28 08:07:00,
2013-09-28 04:12:00,52.3,58.1,30.08,ENE,76,0.0,0.0,58,0.00,,,0.00,0.0,meteohub,2013-09-28 08:12:00,
2013-09-28 04:17:00,52.2,58.1,30.08,ENE,76,0.0,0.0,58,0.00,,,0.00,0.0,meteohub,2013-09-28 08:17:00,
2013-09-28 04:22:00,52.0,58.3,30.08,SSE,159,0.0,0.0,58,0.00,,,0.00,0.0,meteohub,2013-09-28 08:22:00,
2013-09-28 04:27:00,51.6,58.3,30.08,SSE,159,0.0,1.0,58,0.00,,,0.00,0.0,meteohub,2013-09-28 08:27:00,
2013-09-28 04:32:00,51.4,58.3,30.08,SSE,159,0.0,1.0,58,0.00,,,0.00,0.0,meteohub,2013-09-28 08:32:00,
2013-09-28 04:37:00,51.3,57.7,30.08,SSE,159,0.0,1.0,57,0.00,,,0.00,0.0,meteohub,2013-09-28 08:37:00,
2013-09-28 04:42:00,51.1,57.6,30.08,SSE,159,0.0,1.0,57,0.00,,,0.00,0.0,meteohub,2013-09-28 08:42:00,
2013-09-28 04:47:00,51.1,58.1,30.08,SSE,159,0.0,1.0,58,0.00,,,0.00,0.0,meteohub,2013-09-28 08:47:00,
2013-09-28 04:52:00,51.1,57.9,30.08,SSE,159,0.0,1.0,58,0.00,,,0.00,0.0,meteohub,2013-09-28 08:52:00,
2013-09-28 04:57:00,50.7,58.1,30.08,SSE,159,0.0,0.0,58,0.00,,,0.00,0.0,meteohub,2013-09-28 08:57:00,
2013-09-28 05:02:00,50.5,58.1,30.08,SSE,159,0.0,0.0,58,0.00,,,0.00,0.0,meteohub,2013-09-28 09:02:00,
2013-09-28 05:07:00,50.4,58.1,30.08,SSE,159,0.0,0.0,58,0.00,,,0.00,0.0,meteohub,2013-09-28 09:07:00,
2013-09-28 05:12:00,50.2,58.1,30.08,SSE,159,0.0,0.0,58,0.00,,,0.00,0.0,meteohub,2013-09-28 09:12:00,
2013-09-28 05:17:00,50.2,58.1,30.09,SSE,159,0.0,0.0,58,0.00,,,0.00,0.0,meteohub,2013-09-28 09:17:00,
2013-09-28 05:22:00,49.8,58.3,30.09,SSE,159,0.0,0.0,58,0.00,,,0.00,0.0,meteohub,2013-09-28 09:22:00,
2013-09-28 05:27:00,50.0,57.0,30.09,SSE,159,0.0,0.0,56,0.00,,,0.00,0.0,meteohub,2013-09-28 09:27:00,
2013-09-28 05:32:00,50.2,57.6,30.09,SSE,159,0.0,0.0,57,0.00,,,0.00,0.0,meteohub,2013-09-28 09:32:00,
2013-09-28 05:37:00,50.2,57.9,30.09,SSE,159,0.0,0.0,58,0.00,,,0.00,0.0,meteohub,2013-09-28 09:37:00,
2013-09-28 05:42:00,50.0,57.9,30.09,SSE,159,0.0,0.0,58,0.00,,,0.00,0.0,meteohub,2013-09-28 09:42:00,
2013-09-28 05:47:00,49.8,57.9,30.09,SSE,159,0.0,0.0,58,0.00,,,0.00,0.0,meteohub,2013-09-28 09:47:00,
2013-09-28 05:52:00,50.0,57.9,30.09,SSE,159,0.0,0.0,58,0.00,,,0.00,0.0,meteohub,2013-09-28 09:52:00,
2013-09-28 05:57:00,49.8,58.1,30.09,SSE,159,0.0,0.0,58,0.00,,,0.00,0.0,meteohub,2013-09-28 09:57:00,
2013-09-28 06:02:00,49.5,58.1,30.09,SSE,159,0.0,0.0,58,0.00,,,0.00,0.0,meteohub,2013-09-28 10:02:00,
2013-09-28 06:07:00,49.6,58.1,30.09,SSE,159,0.0,0.0,58,0.00,,,0.00,0.0,meteohub,2013-09-28 10:07:00,
2013-09-28 06:12:00,49.3,57.6,30.10,SSE,159,0.0,0.0,57,0.00,,,0.00,0.0,meteohub,2013-09-28 10:12:00,
2013-09-28 06:17:00,49.3,57.6,30.10,SSE,159,0.0,0.0,57,0.00,,,0.00,0.0,meteohub,2013-09-28 10:17:00,
2013-09-28 06:22:00,49.1,57.6,30.10,SSE,158,0.0,0.0,57,0.00,,,0.00,0.0,meteohub,2013-09-28 10:22:00,
2013-09-28 06:27:00,49.3,57.0,30.10,SSE,158,0.0,1.0,56,0.00,,,0.00,0.0,meteohub,2013-09-28 10:27:00,
2013-09-28 06:32:00,49.6,57.4,30.10,SSE,158,0.0,1.0,57,0.00,,,0.00,0.0,meteohub,2013-09-28 10:32:00,
2013-09-28 06:37:00,49.5,57.4,30.10,SSE,158,0.0,1.0,57,0.00,,,0.00,0.0,meteohub,2013-09-28 10:37:00,
2013-09-28 06:42:00,49.5,57.4,30.10,SSE,158,0.0,1.0,57,0.00,,,0.00,0.0,meteohub,2013-09-28 10:42:00,
2013-09-28 06:47:00,49.5,57.4,30.10,East,98,0.0,2.0,57,0.00,,,0.00,0.0,meteohub,2013-09-28 10:47:00,
2013-09-28 06:52:00,49.3,57.4,30.10,East,98,0.0,2.0,57,0.00,,,0.00,0.0,meteohub,2013-09-28 10:52:00,
2013-09-28 06:57:00,49.3,57.4,30.11,East,98,0.0,2.0,57,0.00,,,0.00,0.0,meteohub,2013-09-28 10:57:00,
2013-09-28 07:02:00,49.1,57.6,30.11,East,98,0.0,1.0,57,0.00,,,0.00,0.0,meteohub,2013-09-28 11:02:00,
2013-09-28 07:07:00,49.1,57.6,30.11,East,98,0.0,1.0,57,0.00,,,0.00,0.0,meteohub,2013-09-28 11:07:00,
2013-09-28 07:12:00,48.9,57.6,30.11,SSE,147,1.0,1.0,57,0.00,,,0.00,0.0,meteohub,2013-09-28 11:12:00,
2013-09-28 07:17:00,49.1,57.6,30.12,SSE,147,0.0,2.0,57,0.00,,,0.00,0.0,meteohub,2013-09-28 11:17:00,
2013-09-28 07:22:00,49.1,57.0,30.12,SSE,147,0.0,2.0,56,0.00,,,0.00,0.0,meteohub,2013-09-28 11:22:00,
2013-09-28 07:27:00,49.1,57.4,30.12,SSE,147,0.0,1.0,57,0.00,,,0.00,0.0,meteohub,2013-09-28 11:27:00,
2013-09-28 07:32:00,49.1,57.4,30.12,SSE,147,0.0,1.0,57,0.00,,,0.00,5.0,meteohub,2013-09-28 11:32:00,
2013-09-28 07:37:00,48.9,57.4,30.12,SSE,147,0.0,1.0,57,0.00,,,0.00,7.0,meteohub,2013-09-28 11:37:00,
2013-09-28 07:42:00,48.9,57.4,30.12,SSE,147,0.0,1.0,57,0.00,,,0.00,9.0,meteohub,2013-09-28 11:42:00,
2013-09-28 07:47:00,48.7,57.4,30.12,SSE,147,0.0,2.0,57,0.00,,,0.00,16.0,meteohub,2013-09-28 11:47:00,
2013-09-28 07:52:00,48.9,57.4,30.13,SSE,147,0.0,2.0,57,0.00,,,0.00,18.0,meteohub,2013-09-28 11:52:00,
2013-09-28 07:57:00,49.1,57.4,30.13,SSE,147,0.0,2.0,57,0.00,,,0.00,21.0,meteohub,2013-09-28 11:57:00,
2013-09-28 08:02:00,49.3,57.6,30.13,SSE,147,0.0,1.0,57,0.00,,,0.00,32.0,meteohub,2013-09-28 12:02:00,
2013-09-28 08:07:00,49.5,57.0,30.13,SSE,147,0.0,1.0,56,0.00,,,0.00,35.0,meteohub,2013-09-28 12:07:00,
2013-09-28 08:12:00,49.5,56.8,30.13,SSE,161,0.0,1.0,56,0.00,,,0.00,42.0,meteohub,2013-09-28 12:12:00,
2013-09-28 08:17:00,49.6,57.4,30.13,SE,131,1.0,2.0,57,0.00,,,0.00,51.0,meteohub,2013-09-28 12:17:00,
2013-09-28 08:22:00,49.6,57.4,30.13,SE,138,1.0,2.0,57,0.00,,,0.00,72.0,meteohub,2013-09-28 12:22:00,
2013-09-28 08:27:00,49.5,57.4,30.14,SE,139,0.0,2.0,57,0.00,,,0.00,104.0,meteohub,2013-09-28 12:27:00,
2013-09-28 08:32:00,49.8,57.4,30.14,SE,136,0.0,2.0,57,0.00,,,0.00,179.0,meteohub,2013-09-28 12:32:00,
2013-09-28 08:37:00,49.8,57.4,30.14,SE,136,0.0,2.0,57,0.00,,,0.00,188.0,meteohub,2013-09-28 12:37:00,
2013-09-28 08:42:00,50.4,57.4,30.14,SE,136,0.0,1.0,57,0.00,,,0.00,190.0,meteohub,2013-09-28 12:42:00,
2013-09-28 08:47:00,50.4,57.6,30.14,South,169,0.0,2.0,57,0.00,,,0.00,91.0,meteohub,2013-09-28 12:47:00,
2013-09-28 08:52:00,50.5,57.6,30.14,South,170,0.0,2.0,57,0.00,,,0.00,120.0,meteohub,2013-09-28 12:52:00,
2013-09-28 08:57:00,50.5,57.6,30.14,South,169,0.0,2.0,57,0.00,,,0.00,158.0,meteohub,2013-09-28 12:57:00,
2013-09-28 09:02:00,51.1,57.0,30.14,South,170,0.0,1.0,56,0.00,,,0.00,181.0,meteohub,2013-09-28 13:02:00,
2013-09-28 09:07:00,51.6,56.8,30.14,South,170,0.0,0.0,56,0.00,,,0.00,336.0,meteohub,2013-09-28 13:07:00,
2013-09-28 09:12:00,52.3,57.4,30.14,SSE,160,0.0,0.0,57,0.00,,,0.00,237.0,meteohub,2013-09-28 13:12:00,
2013-09-28 09:17:00,52.7,57.4,30.14,SSE,160,0.0,1.0,57,0.00,,,0.00,322.0,meteohub,2013-09-28 13:17:00,
2013-09-28 09:22:00,53.8,57.4,30.14,SSE,159,0.0,1.0,57,0.00,,,0.00,360.0,meteohub,2013-09-28 13:22:00,
2013-09-28 09:27:00,53.8,57.4,30.15,SSE,164,2.0,2.0,57,0.00,,,0.00,309.0,meteohub,2013-09-28 13:27:00,
2013-09-28 09:32:00,54.1,57.4,30.15,SSE,165,0.0,3.0,57,0.00,,,0.00,397.0,meteohub,2013-09-28 13:32:00,
2013-09-28 09:37:00,54.9,57.6,30.15,SW,223,2.0,3.0,57,0.00,,,0.00,392.0,meteohub,2013-09-28 13:37:00,
2013-09-28 09:42:00,55.6,57.6,30.15,SW,221,0.0,3.0,57,0.00,,,0.00,392.0,meteohub,2013-09-28 13:42:00,
2013-09-28 09:47:00,56.5,57.0,30.15,SSW,205,3.0,3.0,56,0.00,,,0.00,408.0,meteohub,2013-09-28 13:47:00,
2013-09-28 09:52:00,57.0,56.8,30.15,South,170,2.0,3.0,56,0.00,,,0.00,427.0,meteohub,2013-09-28 13:52:00,
2013-09-28 09:57:00,57.0,57.4,30.15,SSW,211,0.0,6.0,57,0.00,,,0.00,446.0,meteohub,2013-09-28 13:57:00,
2013-09-28 10:02:00,58.3,57.4,30.15,South,170,0.0,6.0,57,0.00,,,0.00,462.0,meteohub,2013-09-28 14:02:00,
2013-09-28 10:07:00,58.6,57.4,30.15,ENE,58,1.0,6.0,57,0.00,,,0.00,468.0,meteohub,2013-09-28 14:07:00,
2013-09-28 10:12:00,59.5,57.4,30.15,SE,129,0.0,5.0,57,0.00,,,0.00,519.0,meteohub,2013-09-28 14:12:00,
2013-09-28 10:17:00,59.4,57.6,30.15,ESE,123,1.0,4.0,57,0.00,,,0.00,483.0,meteohub,2013-09-28 14:17:00,
2013-09-28 10:22:00,59.4,57.0,30.15,SSE,159,2.0,4.0,56,0.00,,,0.00,185.0,meteohub,2013-09-28 14:22:00,
2013-09-28 10:27:00,59.7,56.8,30.15,SSE,159,3.0,3.0,56,0.00,,,0.00,497.0,meteohub,2013-09-28 14:27:00,
2013-09-28 10:32:00,60.3,57.4,30.15,SSE,168,2.0,3.0,57,0.00,,,0.00,369.0,meteohub,2013-09-28 14:32:00,
2013-09-28 10:37:00,59.7,57.4,30.15,ESE,119,1.0,4.0,57,0.00,,,0.00,647.0,meteohub,2013-09-28 14:37:00,
2013-09-28 10:42:00,59.9,57.4,30.15,NE,44,1.0,4.0,57,0.00,,,0.00,700.0,meteohub,2013-09-28 14:42:00,
2013-09-28 10:47:00,61.0,57.6,30.15,SE,140,4.0,4.0,57,0.00,,,0.00,543.0,meteohub,2013-09-28 14:47:00,
2013-09-28 10:52:00,61.2,57.6,30.15,South,171,0.0,6.0,57,0.00,,,0.00,575.0,meteohub,2013-09-28 14:52:00,
2013-09-28 10:57:00,61.3,56.8,30.15,SE,146,4.0,6.0,56,0.00,,,0.00,679.0,meteohub,2013-09-28 14:57:00,
2013-09-28 11:02:00,62.2,57.4,30.15,SSE,154,4.0,8.0,57,0.00,,,0.00,795.0,meteohub,2013-09-28 15:02:00,
2013-09-28 11:07:00,61.7,57.4,30.15,South,191,1.0,8.0,57,0.00,,,0.00,425.0,meteohub,2013-09-28 15:07:00,
2013-09-28 11:12:00,61.9,57.4,30.15,SE,144,2.0,8.0,57,0.00,,,0.00,362.0,meteohub,2013-09-28 15:12:00,
2013-09-28 11:17:00,61.9,57.4,30.14,South,185,4.0,7.0,57,0.00,,,0.00,513.0,meteohub,2013-09-28 15:17:00,
2013-09-28 11:22:00,61.3,57.6,30.14,South,191,4.0,7.0,57,0.00,,,0.00,418.0,meteohub,2013-09-28 15:22:00,
2013-09-28 11:27:00,61.3,56.5,30.14,SSE,153,0.0,7.0,55,0.00,,,0.00,429.0,meteohub,2013-09-28 15:27:00,
2013-09-28 11:32:00,63.0,56.8,30.14,South,172,0.0,7.0,56,0.00,,,0.00,376.0,meteohub,2013-09-28 15:32:00,
2013-09-28 11:37:00,63.1,57.4,30.14,ESE,118,2.0,7.0,57,0.00,,,0.00,432.0,meteohub,2013-09-28 15:37:00,
2013-09-28 11:42:00,63.1,57.4,30.14,SE,144,5.0,7.0,57,0.00,,,0.00,436.0,meteohub,2013-09-28 15:42:00,
2013-09-28 11:47:00,63.0,57.4,30.14,SSE,153,2.0,8.0,57,0.00,,,0.00,373.0,meteohub,2013-09-28 15:47:00,
2013-09-28 11:52:00,62.8,57.4,30.14,South,174,3.0,8.0,57,0.00,,,0.00,548.0,meteohub,2013-09-28 15:52:00,
2013-09-28 11:57:00,63.1,57.4,30.14,ENE,66,3.0,8.0,57,0.00,,,0.00,956.0,meteohub,2013-09-28 15:57:00,
2013-09-28 12:02:00,64.2,56.8,30.13,SE,140,3.0,6.0,56,0.00,,,0.00,656.0,meteohub,2013-09-28 16:02:00,
2013-09-28 12:07:00,63.7,56.8,30.14,South,183,4.0,5.0,56,0.00,,,0.00,450.0,meteohub,2013-09-28 16:07:00,
2013-09-28 12:12:00,64.2,57.4,30.13,SE,137,3.0,6.0,57,0.00,,,0.00,425.0,meteohub,2013-09-28 16:12:00,
2013-09-28 12:17:00,64.0,57.4,30.13,SE,144,2.0,8.0,57,0.00,,,0.00,425.0,meteohub,2013-09-28 16:17:00,
2013-09-28 12:22:00,64.4,57.4,30.13,South,175,1.0,8.0,57,0.00,,,0.00,761.0,meteohub,2013-09-28 16:22:00,
2013-09-28 12:27:00,64.2,57.4,30.13,WSW,244,6.0,8.0,57,0.00,,,0.00,1032.0,meteohub,2013-09-28 16:27:00,
2013-09-28 12:32:00,65.5,56.8,30.12,ESE,105,4.0,8.0,56,0.00,,,0.00,522.0,meteohub,2013-09-28 16:32:00,
2013-09-28 12:37:00,66.2,56.8,30.12,South,189,6.0,8.0,56,0.00,,,0.00,997.0,meteohub,2013-09-28 16:37:00,
2013-09-28 12:42:00,65.5,57.4,30.12,SE,134,6.0,8.0,57,0.00,,,0.00,538.0,meteohub,2013-09-28 16:42:00,
2013-09-28 12:47:00,65.8,57.4,30.12,SSW,192,5.0,10.0,57,0.00,,,0.00,394.0,meteohub,2013-09-28 16:47:00,
2013-09-28 12:52:00,65.1,57.4,30.12,SSW,195,2.0,10.0,57,0.00,,,0.00,512.0,meteohub,2013-09-28 16:52:00,
2013-09-28 12:57:00,65.8,57.4,30.12,SE,125,0.0,10.0,57,0.00,,,0.00,517.0,meteohub,2013-09-28 16:57:00,
2013-09-28 13:02:00,66.0,56.8,30.12,SE,146,0.0,9.0,56,0.00,,,0.00,425.0,meteohub,2013-09-28 17:02:00,
2013-09-28 13:07:00,65.8,56.8,30.12,South,177,1.0,9.0,56,0.00,,,0.00,371.0,meteohub,2013-09-28 17:07:00,
2013-09-28 13:12:00,64.8,56.8,30.12,SSE,165,5.0,9.0,56,0.00,,,0.00,341.0,meteohub,2013-09-28 17:12:00,
2013-09-28 13:17:00,64.8,57.4,30.11,SE,138,4.0,9.0,57,0.00,,,0.00,408.0,meteohub,2013-09-28 17:17:00,
2013-09-28 13:22:00,66.0,57.4,30.11,SSE,147,1.0,7.0,57,0.00,,,0.00,415.0,meteohub,2013-09-28 17:22:00,
2013-09-28 13:27:00,65.7,57.4,30.11,South,172,6.0,8.0,57,0.00,,,0.00,635.0,meteohub,2013-09-28 17:27:00,
2013-09-28 13:32:00,65.7,57.4,30.11,SSE,167,1.0,8.0,57,0.00,,,0.00,909.0,meteohub,2013-09-28 17:32:00,
2013-09-28 13:37:00,66.6,56.8,30.11,SSE,157,4.0,8.0,56,0.00,,,0.00,891.0,meteohub,2013-09-28 17:37:00,
2013-09-28 13:42:00,65.7,56.8,30.10,SE,131,0.0,8.0,56,0.00,,,0.00,891.0,meteohub,2013-09-28 17:42:00,
2013-09-28 13:47:00,66.0,57.4,30.10,SSE,161,0.0,7.0,57,0.00,,,0.00,330.0,meteohub,2013-09-28 17:47:00,
2013-09-28 13:52:00,65.8,57.4,30.10,SSE,167,2.0,7.0,57,0.00,,,0.00,1025.0,meteohub,2013-09-28 17:52:00,
2013-09-28 13:57:00,66.6,57.4,30.09,South,173,3.0,6.0,57,0.00,,,0.00,991.0,meteohub,2013-09-28 17:57:00,
2013-09-28 14:02:00,66.4,57.4,30.09,SSW,197,5.0,7.0,57,0.00,,,0.00,253.0,meteohub,2013-09-28 18:02:00,
2013-09-28 14:07:00,66.9,57.4,30.09,SSE,156,2.0,8.0,57,0.00,,,0.00,888.0,meteohub,2013-09-28 18:07:00,
2013-09-28 14:12:00,68.7,56.8,30.09,SE,144,1.0,8.0,56,0.00,,,0.00,886.0,meteohub,2013-09-28 18:12:00,
2013-09-28 14:17:00,67.8,56.8,30.09,SSE,167,2.0,11.0,56,0.00,,,0.00,895.0,meteohub,2013-09-28 18:17:00,
2013-09-28 14:22:00,68.4,57.4,30.08,East,97,6.0,11.0,57,0.00,,,0.00,875.0,meteohub,2013-09-28 18:22:00,
2013-09-28 14:27:00,68.5,57.4,30.07,SSW,206,7.0,11.0,57,0.00,,,0.00,853.0,meteohub,2013-09-28 18:27:00,
2013-09-28 14:32:00,67.6,57.4,30.07,SE,143,4.0,11.0,57,0.00,,,0.00,854.0,meteohub,2013-09-28 18:32:00,
2013-09-28 14:37:00,70.0,57.4,30.07,East,92,2.0,11.0,57,0.00,,,0.00,972.0,meteohub,2013-09-28 18:37:00,
2013-09-28 14:42:00,68.7,57.4,30.07,SSE,154,5.0,10.0,57,0.00,,,0.00,299.0,meteohub,2013-09-28 18:42:00,
2013-09-28 14:47:00,68.5,56.8,30.07,East,95,0.0,8.0,56,0.00,,,0.00,937.0,meteohub,2013-09-28 18:47:00,
2013-09-28 14:52:00,68.0,56.8,30.07,SE,128,2.0,8.0,56,0.00,,,0.00,234.0,meteohub,2013-09-28 18:52:00,
2013-09-28 14:57:00,67.5,57.4,30.06,SE,135,1.0,8.0,57,0.00,,,0.00,167.0,meteohub,2013-09-28 18:57:00,
2013-09-28 15:02:00,68.0,57.4,30.06,South,176,1.0,7.0,57,0.00,,,0.00,457.0,meteohub,2013-09-28 19:02:00,
2013-09-28 15:07:00,69.3,57.4,30.06,ESE,114,3.0,9.0,57,0.00,,,0.00,907.0,meteohub,2013-09-28 19:07:00,
2013-09-28 15:12:00,69.1,57.4,30.07,East,90,0.0,11.0,57,0.00,,,0.00,193.0,meteohub,2013-09-28 19:12:00,
2013-09-28 15:17:00,68.0,56.8,30.07,SE,142,5.0,11.0,56,0.00,,,0.00,896.0,meteohub,2013-09-28 19:17:00,
2013-09-28 15:22:00,68.4,57.4,30.06,SSE,155,3.0,11.0,57,0.00,,,0.00,316.0,meteohub,2013-09-28 19:22:00,
2013-09-28 15:27:00,68.2,57.4,30.06,SE,144,2.0,8.0,57,0.00,,,0.00,308.0,meteohub,2013-09-28 19:27:00,
2013-09-28 15:32:00,68.5,57.4,30.06,SSE,162,5.0,8.0,57,0.00,,,0.00,244.0,meteohub,2013-09-28 19:32:00,
2013-09-28 15:37:00,67.6,57.4,30.06,SSE,155,5.0,8.0,57,0.00,,,0.00,178.0,meteohub,2013-09-28 19:37:00,
2013-09-28 15:42:00,67.3,57.4,30.06,ESE,103,3.0,8.0,57,0.00,,,0.00,185.0,meteohub,2013-09-28 19:42:00,
2013-09-28 15:47:00,66.7,56.5,30.06,ESE,112,0.0,8.0,55,0.00,,,0.00,209.0,meteohub,2013-09-28 19:47:00,
2013-09-28 15:52:00,66.7,56.8,30.06,SSE,158,4.0,7.0,56,0.00,,,0.00,230.0,meteohub,2013-09-28 19:52:00,
2013-09-28 15:57:00,66.7,57.4,30.06,ESE,116,3.0,6.0,57,0.00,,,0.00,206.0,meteohub,2013-09-28 19:57:00,
2013-09-28 16:02:00,66.9,57.4,30.05,SE,130,4.0,6.0,57,0.00,,,0.00,195.0,meteohub,2013-09-28 20:02:00,
2013-09-28 16:07:00,66.7,57.4,30.06,South,169,4.0,7.0,57,0.00,,,0.00,188.0,meteohub,2013-09-28 20:07:00,
2013-09-28 16:12:00,66.6,57.4,30.05,South,169,5.0,7.0,57,0.00,,,0.00,179.0,meteohub,2013-09-28 20:12:00,
2013-09-28 16:17:00,67.1,57.4,30.05,ESE,117,5.0,8.0,57,0.00,,,0.00,582.0,meteohub,2013-09-28 20:17:00,
2013-09-28 16:22:00,68.2,56.8,30.05,SSE,160,4.0,10.0,56,0.00,,,0.00,582.0,meteohub,2013-09-28 20:22:00,
2013-09-28 16:27:00,68.9,56.8,30.06,East,92,5.0,10.0,56,0.00,,,0.00,545.0,meteohub,2013-09-28 20:27:00,
2013-09-28 16:32:00,69.3,57.4,30.06,SSE,161,5.0,11.0,57,0.00,,,0.00,631.0,meteohub,2013-09-28 20:32:00,
2013-09-28 16:37:00,68.5,57.4,30.05,ESE,119,5.0,11.0,57,0.00,,,0.00,670.0,meteohub,2013-09-28 20:37:00,
2013-09-28 16:42:00,68.5,57.4,30.06,SE,126,6.0,8.0,57,0.00,,,0.00,171.0,meteohub,2013-09-28 20:42:00,
2013-09-28 16:47:00,67.3,57.4,30.06,SE,138,5.0,10.0,57,0.00,,,0.00,134.0,meteohub,2013-09-28 20:47:00,
2013-09-28 16:52:00,66.4,56.8,30.06,SE,133,4.0,10.0,56,0.00,,,0.00,123.0,meteohub,2013-09-28 20:52:00,
2013-09-28 16:57:00,66.0,56.7,30.06,SE,124,5.0,10.0,56,0.00,,,0.00,102.0,meteohub,2013-09-28 20:57:00,
2013-09-28 17:02:00,65.7,57.0,30.06,SSE,148,1.0,9.0,57,0.00,,,0.00,102.0,meteohub,2013-09-28 21:02:00,
2013-09-28 17:07:00,65.5,57.0,30.06,SSE,154,1.0,7.0,57,0.00,,,0.00,90.0,meteohub,2013-09-28 21:07:00,
2013-09-28 17:12:00,65.1,57.4,30.06,ESE,122,3.0,7.0,57,0.00,,,0.00,90.0,meteohub,2013-09-28 21:12:00,
2013-09-28 17:17:00,65.7,57.4,30.05,SE,134,1.0,8.0,57,0.00,,,0.00,388.0,meteohub,2013-09-28 21:17:00,
2013-09-28 17:22:00,66.0,57.4,30.05,SE,138,6.0,8.0,57,0.00,,,0.00,366.0,meteohub,2013-09-28 21:22:00,
2013-09-28 17:27:00,66.6,56.8,30.05,SE,139,2.0,9.0,56,0.00,,,0.00,355.0,meteohub,2013-09-28 21:27:00,
2013-09-28 17:32:00,66.9,56.8,30.05,SE,144,3.0,9.0,56,0.00,,,0.00,334.0,meteohub,2013-09-28 21:32:00,
2013-09-28 17:37:00,67.3,57.0,30.05,SE,142,3.0,9.0,57,0.00,,,0.00,309.0,meteohub,2013-09-28 21:37:00,
2013-09-28 17:42:00,66.9,57.0,30.05,South,171,3.0,7.0,57,0.00,,,0.00,288.0,meteohub,2013-09-28 21:42:00,
2013-09-28 17:47:00,66.9,57.4,30.05,SE,127,6.0,6.0,57,0.00,,,0.00,271.0,meteohub,2013-09-28 21:47:00,
2013-09-28 17:52:00,66.7,57.4,30.05,South,171,0.0,8.0,57,0.00,,,0.00,255.0,meteohub,2013-09-28 21:52:00,
2013-09-28 17:57:00,66.6,57.4,30.05,SE,139,8.0,8.0,57,0.00,,,0.00,241.0,meteohub,2013-09-28 21:57:00,
2013-09-28 18:02:00,66.7,56.8,30.05,SSE,161,4.0,8.0,56,0.00,,,0.00,160.0,meteohub,2013-09-28 22:02:00,
2013-09-28 18:07:00,66.6,56.8,30.05,SSE,157,0.0,8.0,56,0.00,,,0.00,186.0,meteohub,2013-09-28 22:07:00,
2013-09-28 18:12:00,66.2,57.0,30.04,South,173,4.0,8.0,57,0.00,,,0.00,155.0,meteohub,2013-09-28 22:12:00,
2013-09-28 18:17:00,65.8,57.0,30.04,SSE,148,4.0,9.0,57,0.00,,,0.00,95.0,meteohub,2013-09-28 22:17:00,
2013-09-28 18:22:00,65.7,57.0,30.05,SE,142,5.0,9.0,57,0.00,,,0.00,107.0,meteohub,2013-09-28 22:22:00,
2013-09-28 18:27:00,65.3,57.4,30.05,SE,132,2.0,8.0,57,0.00,,,0.00,121.0,meteohub,2013-09-28 22:27:00,
2013-09-28 18:32:00,65.1,57.4,30.04,SE,142,4.0,8.0,57,0.00,,,0.00,93.0,meteohub,2013-09-28 22:32:00,
2013-09-28 18:37:00,64.8,56.8,30.04,ESE,119,7.0,9.0,56,0.00,,,0.00,74.0,meteohub,2013-09-28 22:37:00,
2013-09-28 18:42:00,64.2,57.0,30.04,SE,142,3.0,9.0,57,0.00,,,0.00,44.0,meteohub,2013-09-28 22:42:00,
2013-09-28 18:47:00,63.7,57.0,30.05,SE,143,1.0,7.0,57,0.00,,,0.00,25.0,meteohub,2013-09-28 22:47:00,
2013-09-28 18:52:00,63.1,57.0,30.05,ESE,117,2.0,7.0,57,0.00,,,0.00,21.0,meteohub,2013-09-28 22:52:00,
2013-09-28 18:57:00,62.8,57.0,30.05,South,169,0.0,7.0,57,0.00,,,0.00,18.0,meteohub,2013-09-28 22:57:00,
2013-09-28 19:02:00,62.2,57.4,30.05,SE,142,0.0,7.0,57,0.00,,,0.00,12.0,meteohub,2013-09-28 23:02:00,
2013-09-28 19:07:00,61.9,57.4,30.05,ENE,71,2.0,7.0,57,0.00,,,0.00,11.0,meteohub,2013-09-28 23:07:00,
2013-09-28 19:12:00,61.5,57.4,30.05,ENE,61,5.0,8.0,57,0.00,,,0.00,7.0,meteohub,2013-09-28 23:12:00,
2013-09-28 19:17:00,61.2,56.8,30.05,East,94,2.0,8.0,56,0.00,,,0.00,5.0,meteohub,2013-09-28 23:17:00,
2013-09-28 19:22:00,60.6,57.0,30.05,ESE,117,0.0,8.0,57,0.00,,,0.00,5.0,meteohub,2013-09-28 23:22:00,
2013-09-28 19:27:00,60.3,57.0,30.05,ENE,69,0.0,5.0,57,0.00,,,0.00,5.0,meteohub,2013-09-28 23:27:00,
2013-09-28 19:32:00,60.1,57.6,30.06,ESE,118,0.0,5.0,58,0.00,,,0.00,0.0,meteohub,2013-09-28 23:32:00,
2013-09-28 19:37:00,59.7,57.6,30.06,East,82,0.0,5.0,58,0.00,,,0.00,0.0,meteohub,2013-09-28 23:37:00,
2013-09-28 19:42:00,59.5,57.6,30.05,ESE,111,2.0,5.0,58,0.00,,,0.00,0.0,meteohub,2013-09-28 23:42:00,
2013-09-28 19:47:00,59.4,57.9,30.05,ESE,122,2.0,3.0,58,0.00,,,0.00,0.0,meteohub,2013-09-28 23:47:00,
2013-09-28 19:52:00,59.2,57.4,30.05,East,88,1.0,7.0,57,0.00,,,0.00,0.0,meteohub,2013-09-28 23:52:00,
2013-09-28 19:57:00,59.0,56.8,30.05,ENE,77,4.0,7.0,56,0.00,,,0.00,0.0,meteohub,2013-09-28 23:57:00,
2013-09-28 20:02:00,58.8,57.0,30.06,East,99,2.0,8.0,57,0.00,,,0.00,0.0,meteohub,2013-09-29 00:02:00,
2013-09-28 20:07:00,58.6,57.0,30.06,ESE,122,0.0,8.0,57,0.00,,,0.00,0.0,meteohub,2013-09-29 00:07:00,
2013-09-28 20:12:00,58.5,57.6,30.06,East,92,1.0,7.0,58,0.00,,,0.00,0.0,meteohub,2013-09-29 00:12:00,
2013-09-28 20:17:00,58.5,57.6,30.06,ESE,113,0.0,5.0,58,0.00,,,0.00,0.0,meteohub,2013-09-29 00:17:00,
2013-09-28 20:22:00,58.3,57.6,30.06,SE,137,1.0,3.0,58,0.00,,,0.00,0.0,meteohub,2013-09-29 00:22:00,
2013-09-28 20:27:00,57.9,57.6,30.06,East,101,0.0,4.0,58,0.00,,,0.00,0.0,meteohub,2013-09-29 00:27:00,
2013-09-28 20:32:00,57.7,57.9,30.06,SE,126,0.0,4.0,58,0.00,,,0.00,0.0,meteohub,2013-09-29 00:32:00,
2013-09-28 20:37:00,57.6,57.4,30.06,ESE,117,1.0,4.0,57,0.00,,,0.00,0.0,meteohub,2013-09-29 00:37:00,
2013-09-28 20:42:00,57.4,57.0,30.06,SE,127,0.0,4.0,57,0.00,,,0.00,0.0,meteohub,2013-09-29 00:42:00,
2013-09-28 20:47:00,57.0,57.6,30.06,SE,127,0.0,4.0,58,0.00,,,0.00,0.0,meteohub,2013-09-29 00:47:00,
2013-09-28 20:52:00,56.8,57.6,30.06,East,87,0.0,3.0,58,0.00,,,0.00,0.0,meteohub,2013-09-29 00:52:00,
2013-09-28 20:57:00,56.8,57.6,30.07,ESE,102,2.0,2.0,58,0.00,,,0.00,0.0,meteohub,2013-09-29 00:57:00,
2013-09-28 21:02:00,56.8,57.6,30.07,SE,128,3.0,3.0,58,0.00,,,0.00,0.0,meteohub,2013-09-29 01:02:00,
2013-09-28 21:07:00,57.0,57.6,30.07,ENE,75,0.0,5.0,58,0.00,,,0.00,0.0,meteohub,2013-09-29 01:07:00,
2013-09-28 21:12:00,57.0,57.4,30.07,SE,136,0.0,5.0,57,0.00,,,0.00,0.0,meteohub,2013-09-29 01:12:00,
2013-09-28 21:22:00,57.0,57.0,30.07,ESE,115,0.0,4.0,57,0.00,,,0.00,0.0,meteohub,2013-09-29 01:22:00,
2013-09-28 21:27:00,57.0,57.6,30.07,ENE,74,0.0,3.0,58,0.00,,,0.00,0.0,meteohub,2013-09-29 01:27:00,
2013-09-28 21:32:00,57.0,57.6,30.07,ENE,69,0.0,3.0,58,0.00,,,0.00,0.0,meteohub,2013-09-29 01:32:00,
2013-09-28 21:37:00,56.8,57.6,30.07,ENE,74,3.0,3.0,58,0.00,,,0.00,0.0,meteohub,2013-09-29 01:37:00,
2013-09-28 21:42:00,56.8,57.6,30.08,ENE,71,0.0,3.0,58,0.00,,,0.00,0.0,meteohub,2013-09-29 01:42:00,
2013-09-28 21:47:00,56.7,57.6,30.08,ESE,104,0.0,3.0,58,0.00,,,0.00,0.0,meteohub,2013-09-29 01:47:00,
2013-09-28 21:52:00,56.7,57.9,30.07,East,82,0.0,4.0,58,0.00,,,0.00,0.0,meteohub,2013-09-29 01:52:00,
2013-09-28 21:57:00,56.5,57.4,30.08,East,84,0.0,4.0,57,0.00,,,0.00,0.0,meteohub,2013-09-29 01:57:00,
2013-09-28 22:02:00,56.5,57.0,30.07,East,96,1.0,3.0,57,0.00,,,0.00,0.0,meteohub,2013-09-29 02:02:00,
2013-09-28 22:07:00,56.3,57.0,30.07,East,96,0.0,3.0,57,0.00,,,0.00,0.0,meteohub,2013-09-29 02:07:00,
2013-09-28 22:12:00,56.1,57.6,30.08,East,96,0.0,3.0,58,0.00,,,0.00,0.0,meteohub,2013-09-29 02:12:00,
2013-09-28 22:17:00,56.1,57.6,30.07,East,96,0.0,2.0,58,0.00,,,0.00,0.0,meteohub,2013-09-29 02:17:00,
2013-09-28 22:22:00,56.1,57.6,30.07,East,96,0.0,2.0,58,0.00,,,0.00,0.0,meteohub,2013-09-29 02:22:00,
2013-09-28 22:27:00,56.1,57.6,30.08,East,96,0.0,2.0,58,0.00,,,0.00,0.0,meteohub,2013-09-29 02:27:00,
2013-09-28 22:32:00,56.1,57.9,30.07,East,95,0.0,1.0,58,0.00,,,0.00,0.0,meteohub,2013-09-29 02:32:00,
2013-09-28 22:37:00,56.3,57.4,30.07,East,95,0.0,1.0,57,0.00,,,0.00,0.0,meteohub,2013-09-29 02:37:00,
2013-09-28 22:42:00,56.1,57.0,30.07,East,95,0.0,1.0,57,0.00,,,0.00,0.0,meteohub,2013-09-29 02:42:00,
2013-09-28 22:47:00,56.1,57.0,30.07,East,95,0.0,0.0,57,0.00,,,0.00,0.0,meteohub,2013-09-29 02:47:00,
2013-09-28 22:52:00,56.1,57.6,30.07,East,95,0.0,2.0,58,0.00,,,0.00,0.0,meteohub,2013-09-29 02:52:00,
2013-09-28 22:57:00,56.1,57.6,30.07,East,95,1.0,2.0,58,0.00,,,0.00,0.0,meteohub,2013-09-29 02:57:00,
2013-09-28 23:02:00,56.1,57.6,30.07,East,86,1.0,2.0,58,0.00,,,0.00,0.0,meteohub,2013-09-29 03:02:00,
2013-09-28 23:07:00,56.1,57.6,30.07,ENE,70,0.0,2.0,58,0.00,,,0.00,0.0,meteohub,2013-09-29 03:07:00,
2013-09-28 23:12:00,56.1,57.6,30.07,East,80,0.0,2.0,58,0.00,,,0.00,0.0,meteohub,2013-09-29 03:12:00,
2013-09-28 23:17:00,56.1,57.9,30.07,East,82,0.0,3.0,58,0.00,,,0.00,0.0,meteohub,2013-09-29 03:17:00,
2013-09-28 23:22:00,56.1,56.8,30.07,East,86,0.0,3.0,56,0.00,,,0.00,0.0,meteohub,2013-09-29 03:22:00,
2013-09-28 23:32:00,56.1,56.8,30.07,ESE,105,0.0,2.0,57,0.00,,,0.00,0.0,meteohub,2013-09-29 03:32:00,
2013-09-28 23:37:00,56.1,56.8,30.07,ESE,105,0.0,1.0,57,0.00,,,0.00,0.0,meteohub,2013-09-29 03:37:00,
2013-09-28 23:42:00,56.1,57.4,30.07,ESE,105,0.0,1.0,58,0.00,,,0.00,0.0,meteohub,2013-09-29 03:42:00,
2013-09-28 23:52:00,56.5,57.6,30.07,ESE,120,0.0,2.0,58,0.00,,,0.00,0.0,meteohub,2013-09-29 03:52:00,
2013-09-28 23:57:00,56.5,57.6,30.08,East,98,0.0,3.0,58,0.00,,,0.00,0.0,meteohub,2013-09-29 03:57:00,